Time,TemperatureF,DewpointF,PressureIn,WindDirection,WindDirectionDegrees,WindSpeedMPH,WindSpeedGustMPH,Humidity,HourlyPrecipIn,Conditions,Clouds,dailyrainin,SoftwareType,DateUTC
2013-12-21 00:12:00,36.0,24.0,-100.00,SSE,162,3.0,4.0,62,-99.99,,,-99.99,,2013-12-21 08:12:00,
2013-12-21 00:22:00,37.0,26.0,-100.00,SSE,161,3.0,3.0,64,-99.99,,,-99.99,,2013-12-21 08:22:00,
2013-12-21 00:53:00,39.0,27.0,-100.00,NNE,18,3.0,5.0,61,-99.99,,,-99.99,,2013-12-21 08:53:00,
2013-12-21 01:01:00,38.0,26.0,-100.00,North,-999,0.0,2.0,62,-99.99,,,-99.99,,2013-12-21 09:01:00,
2013-12-21 01:11:00,37.0,26.0,-100.00,South,178,3.0,4.0,63,-99.99,,,-99.99,,2013-12-21 09:11:00,
2013-12-21 01:22:00,37.0,26.0,-100.00,South,178,3.0,4.0,63,-99.99,,,-99.99,,2013-12-21 09:22:00,
2013-12-21 01:43:00,38.0,26.0,-100.00,North,-999,0.0,2.0,62,-99.99,,,-99.99,,2013-12-21 09:43:00,
2013-12-21 01:54:00,38.0,26.0,-100.00,North,-999,0.0,2.0,62,-99.99,,,-99.99,,2013-12-21 09:54:00,
2013-12-21 02:43:00,39.0,27.0,-100.00,South,179,2.0,4.0,63,-99.99,,,-99.99,,2013-12-21 10:43:00,
2013-12-21 02:53:00,38.0,27.0,-100.00,ENE,61,3.0,6.0,64,-99.99,,,-99.99,,2013-12-21 10:53:00,
2013-12-21 03:02:00,38.0,27.0,-100.00,ENE,61,3.0,6.0,64,-99.99,,,-99.99,,2013-12-21 11:02:00,
2013-12-21 03:11:00,41.0,28.0,-100.00,NE,35,4.0,7.0,59,-99.99,,,-99.99,,2013-12-21 11:11:00,
2013-12-21 03:22:00,41.0,28.0,-100.00,NNE,21,4.0,8.0,60,-99.99,,,-99.99,,2013-12-21 11:22:00,
2013-12-21 03:33:00,41.0,28.0,-100.00,NNE,21,4.0,8.0,60,-99.99,,,-99.99,,2013-12-21 11:33:00,
2013-12-21 03:53:00,41.0,28.0,-100.00,NE,35,4.0,7.0,59,-99.99,,,-99.99,,2013-12-21 11:53:00,
2013-12-21 04:02:00,41.0,28.0,-100.00,NE,35,4.0,7.0,59,-99.99,,,-99.99,,2013-12-21 12:02:00,
2013-12-21 04:42:00,40.0,27.0,-100.00,NE,47,4.0,6.0,60,-99.99,,,-99.99,,2013-12-21 12:42:00,
2013-12-21 04:52:00,40.0,27.0,-100.00,NE,47,4.0,6.0,60,-99.99,,,-99.99,,2013-12-21 12:52:00,
2013-12-21 05:11:00,40.0,27.0,-100.00,NE,38,1.0,3.0,60,-99.99,,,-99.99,,2013-12-21 13:11:00,
2013-12-21 05:21:00,40.0,27.0,-100.00,NE,38,1.0,3.0,60,-99.99,,,-99.99,,2013-12-21 13:21:00,
2013-12-21 05:42:00,37.0,25.0,-100.00,South,178,1.0,3.0,62,-99.99,,,-99.99,,2013-12-21 13:42:00,
2013-12-21 05:52:00,38.0,26.0,-100.00,SSE,157,2.0,4.0,61,-99.99,,,-99.99,,2013-12-21 13:52:00,
2013-12-21 06:02:00,38.0,26.0,-100.00,SSE,157,2.0,4.0,61,-99.99,,,-99.99,,2013-12-21 14:02:00,
2013-12-21 06:11:00,37.0,25.0,-100.00,SSE,147,1.0,2.0,62,-99.99,,,-99.99,,2013-12-21 14:11:00,
2013-12-21 06:12:00,38.0,26.0,-100.00,SSE,157,2.0,4.0,61,-99.99,,,-99.99,,2013-12-21 14:12:00,
2013-12-21 06:22:00,38.0,26.0,-100.00,South,169,2.0,4.0,61,-99.99,,,-99.99,,2013-12-21 14:22:00,
2013-12-21 06:32:00,38.0,26.0,-100.00,South,169,2.0,4.0,61,-99.99,,,-99.99,,2013-12-21 14:32:00,
2013-12-21 06:42:00,38.0,26.0,-100.00,South,169,2.0,4.0,61,-99.99,,,-99.99,,2013-12-21 14:42:00,
2013-12-21 06:53:00,37.0,25.0,-100.00,SSE,147,1.0,2.0,62,-99.99,,,-99.99,,2013-12-21 14:53:00,
2013-12-21 07:02:00,37.0,25.0,-100.00,SSE,147,1.0,2.0,62,-99.99,,,-99.99,,2013-12-21 15:02:00,
2013-12-21 08:22:00,35.0,23.0,-100.00,SSE,165,2.0,2.0,62,-99.99,,,-99.99,,2013-12-21 16:22:00,
2013-12-21 09:22:00,35.0,24.0,-100.00,South,169,2.0,3.0,63,-99.99,,,-99.99,,2013-12-21 17:22:00,
2013-12-21 09:43:00,38.0,25.0,-100.00,North,-999,0.0,2.0,59,-99.99,,,-99.99,,2013-12-21 17:43:00,
2013-12-21 09:53:00,38.0,25.0,-100.00,North,-999,0.0,2.0,59,-99.99,,,-99.99,,2013-12-21 17:53:00,
2013-12-21 10:02:00,38.0,25.0,-100.00,North,-999,0.0,2.0,59,-99.99,,,-99.99,,2013-12-21 18:02:00,
2013-12-21 10:22:00,38.0,25.0,-100.00,SSE,155,1.0,3.0,59,-99.99,,,-99.99,,2013-12-21 18:22:00,
2013-12-21 10:42:00,39.0,25.0,-100.00,North,-999,0.0,2.0,58,-99.99,,,-99.99,,2013-12-21 18:42:00,
2013-12-21 10:52:00,39.0,25.0,-100.00,North,-999,0.0,2.0,58,-99.99,,,-99.99,,2013-12-21 18:52:00,
2013-12-21 11:02:00,39.0,25.0,-100.00,North,-999,0.0,2.0,58,-99.99,,,-99.99,,2013-12-21 19:02:00,
2013-12-21 11:42:00,40.0,26.0,-100.00,WSW,253,2.0,5.0,56,-99.99,,,-99.99,,2013-12-21 19:42:00,
2013-12-21 11:52:00,41.0,26.0,-100.00,WSW,244,1.0,3.0,54,-99.99,,,-99.99,,2013-12-21 19:52:00,
2013-12-21 12:02:00,41.0,26.0,-100.00,WSW,244,1.0,3.0,54,-99.99,,,-99.99,,2013-12-21 20:02:00,
2013-12-21 12:12:00,41.0,26.0,-100.00,WSW,244,1.0,3.0,54,-99.99,,,-99.99,,2013-12-21 20:12:00,
2013-12-21 12:22:00,42.0,25.0,-100.00,NNW,339,1.0,3.0,51,-99.99,,,-99.99,,2013-12-21 20:22:00,
2013-12-21 12:42:00,42.0,26.0,-100.00,West,274,2.0,6.0,52,-99.99,,,-99.99,,2013-12-21 20:42:00,
2013-12-21 12:52:00,42.0,26.0,-100.00,West,274,2.0,6.0,52,-99.99,,,-99.99,,2013-12-21 20:52:00,
2013-12-21 13:02:00,42.0,26.0,-100.00,West,274,2.0,6.0,52,-99.99,,,-99.99,,2013-12-21 21:02:00,
2013-12-21 13:22:00,42.0,25.0,-100.00,West,265,2.0,4.0,51,-99.99,,,-99.99,,2013-12-21 21:22:00,
2013-12-21 13:43:00,42.0,25.0,-100.00,North,-999,0.0,3.0,50,-99.99,,,-99.99,,2013-12-21 21:43:00,
2013-12-21 14:12:00,41.0,25.0,-100.00,North,-999,0.0,2.0,52,-99.99,,,-99.99,,2013-12-21 22:12:00,
2013-12-21 14:42:00,41.0,25.0,-100.00,SSW,209,1.0,2.0,52,-99.99,,,-99.99,,2013-12-21 22:42:00,
2013-12-21 15:12:00,42.0,25.0,-100.00,SSW,198,1.0,3.0,50,-99.99,,,-99.99,,2013-12-21 23:12:00,
2013-12-21 15:22:00,41.0,24.0,-100.00,SSE,152,2.0,3.0,50,-99.99,,,-99.99,,2013-12-21 23:22:00,
2013-12-21 15:33:00,41.0,24.0,-100.00,SSE,152,2.0,3.0,50,-99.99,,,-99.99,,2013-12-21 23:33:00,
2013-12-21 15:43:00,41.0,24.0,-100.00,SSE,152,2.0,3.0,50,-99.99,,,-99.99,,2013-12-21 23:43:00,
2013-12-21 15:53:00,40.0,24.0,-100.00,South,169,2.0,3.0,52,-99.99,,,-99.99,,2013-12-21 23:53:00,
2013-12-21 16:02:00,40.0,24.0,-100.00,South,169,2.0,3.0,52,-99.99,,,-99.99,,2013-12-22 00:02:00,
2013-12-21 16:11:00,40.0,24.0,-100.00,South,169,2.0,3.0,52,-99.99,,,-99.99,,2013-12-22 00:11:00,
2013-12-21 17:22:00,41.0,16.0,-100.00,SE,144,2.0,7.0,36,-99.99,,,-99.99,,2013-12-22 01:22:00,
2013-12-21 17:42:00,41.0,17.0,-100.00,NNE,31,2.0,8.0,38,-99.99,,,-99.99,,2013-12-22 01:42:00,
2013-12-21 17:52:00,41.0,17.0,-100.00,NNE,31,2.0,8.0,38,-99.99,,,-99.99,,2013-12-22 01:52:00,
2013-12-21 18:02:00,41.0,17.0,-100.00,NNE,31,2.0,8.0,38,-99.99,,,-99.99,,2013-12-22 02:02:00,
2013-12-21 18:22:00,39.0,18.0,-100.00,South,174,1.0,4.0,42,-99.99,,,-99.99,,2013-12-22 02:22:00,
2013-12-21 18:42:00,38.0,18.0,-100.00,SSE,168,1.0,3.0,44,-99.99,,,-99.99,,2013-12-22 02:42:00,
2013-12-21 19:11:00,38.0,21.0,-100.00,South,169,3.0,4.0,49,-99.99,,,-99.99,,2013-12-22 03:11:00,
2013-12-21 19:43:00,35.0,19.0,-100.00,SSE,147,1.0,2.0,51,-99.99,,,-99.99,,2013-12-22 03:43:00,
2013-12-21 20:02:00,-999.0,-99.9,-100.00,SSE,157,2.0,3.0,-999,-99.99,,,-99.99,,2013-12-22 04:02:00,
2013-12-21 20:13:00,35.0,18.0,-100.00,SSE,157,2.0,3.0,50,-99.99,,,-99.99,,2013-12-22 04:13:00,
2013-12-21 20:23:00,34.0,20.0,-100.00,SSE,165,2.0,3.0,55,-99.99,,,-99.99,,2013-12-22 04:23:00,
2013-12-21 20:33:00,34.0,20.0,-100.00,SSE,165,2.0,3.0,55,-99.99,,,-99.99,,2013-12-22 04:33:00,
2013-12-21 20:40:00,35.0,19.0,-100.00,SSE,155,2.0,3.0,52,-99.99,,,-99.99,,2013-12-22 04:40:00,
2013-12-21 20:43:00,34.0,20.0,-100.00,SSE,165,2.0,3.0,55,-99.99,,,-99.99,,2013-12-22 04:43:00,
2013-12-21 20:53:00,35.0,20.0,-100.00,SSE,154,2.0,3.0,54,-99.99,,,-99.99,,2013-12-22 04:53:00,
2013-12-21 21:03:00,35.0,20.0,-100.00,SSE,154,2.0,3.0,54,-99.99,,,-99.99,,2013-12-22 05:03:00,
2013-12-21 21:22:00,35.0,19.0,-100.00,SSE,155,2.0,3.0,52,-99.99,,,-99.99,,2013-12-22 05:22:00,
2013-12-21 21:32:00,35.0,19.0,-100.00,SSE,155,2.0,3.0,52,-99.99,,,-99.99,,2013-12-22 05:32:00,
2013-12-21 22:12:00,32.0,18.0,-100.00,South,171,1.0,2.0,56,-99.99,,,-99.99,,2013-12-22 06:12:00,
2013-12-21 22:42:00,32.0,19.0,-100.00,SSE,164,1.0,2.0,58,-99.99,,,-99.99,,2013-12-22 06:42:00,
2013-12-21 22:52:00,35.0,20.0,-100.00,SE,128,1.0,3.0,53,-99.99,,,-99.99,,2013-12-22 06:52:00,
2013-12-21 23:02:00,35.0,20.0,-100.00,SE,128,1.0,3.0,53,-99.99,,,-99.99,,2013-12-22 07:02:00,
2013-12-21 23:11:00,35.0,20.0,-100.00,SE,128,1.0,3.0,53,-99.99,,,-99.99,,2013-12-22 07:11:00,
2013-12-21 23:22:00,36.0,20.0,-100.00,ESE,117,2.0,4.0,52,-99.99,,,-99.99,,2013-12-22 07:22:00,
2013-12-21 23:32:00,36.0,20.0,-100.00,ESE,117,2.0,4.0,52,-99.99,,,-99.99,,2013-12-22 07:32:00,
2013-12-21 23:52:00,33.0,20.0,-100.00,South,174,1.0,2.0,58,-99.99,,,-99.99,,2013-12-22 07:52:00,